Tracking 19476 objects as of 17-Jan-2019
HD Live streaming from Space Station
objects crossing your sky now

COSMOS 733

Track COSMOS 733 now!
10-day predictions
COSMOS 733 is classified as:


NORAD ID: 7822
Int'l Code: 1975-045B
Perigee: 1,476.2 km
Apogee: 1,561.4 km
Inclination: 74.0 °
Period: 116.2 minutes
Semi major axis: 7889 km
RCS: 0.717 m2 (medium)
Launch date: May 28, 1975
Source: Commonwealth of Independent States (former USSR) (CIS)
Launch site: PLESETSK MISSILE AND SPACE COMPLEX (PKMTR)
aabbcc
Your satellite tracking list
Your tracking list is empty




NASA's NSSDC Master Catalog

Two Line Element Set (TLE):
1  7822U 75045B   19016.53407108 -.00000002 +00000-0 +10418-3 0  9995
2  7822 074.0179 025.4367 0053963 225.2817 233.1781 12.38803400973552
Source of the keplerian elements: AFSPC